When you browse on this site, cookies collect data to enhance your experience and personalize the content and advertising you see.
Visit our Privacy Policy to learn more. By continuing to use the site, you agree to this use of cookies and data.
  • în România
  • Lista ţărilor
  • Pe 7 zile
  • Temperatura apei
  • Meteo pe hartă
  • Widget-uri
  • user-avatar
    Intrare

    Meteo pe oră la Porto Alegre

    Astăzi, 27 Februarie, Joi

    Timp Temperatura Precipitaţii Vânt Presiune Umiditate
    00:00 +20°C° 0 mm 1 m/s 758 mmHg 66%
    01:00 +20°C° 0 mm 1 m/s 758 mmHg 67%
    02:00 +20°C° 0 mm 1 m/s 758 mmHg 69%
    03:00 +17°C° 0 mm 0 m/s 758 mmHg 70%
    04:00 +19°C° 0 mm 1 m/s 758 mmHg 72%
    05:00 +19°C° 0 mm 1 m/s 758 mmHg 74%
    06:00 +18°C° 0 mm 1 m/s 758 mmHg 75%
    07:00 +20°C° 0 mm 1 m/s 758 mmHg 69%
    08:00 +21°C° 0 mm 1 m/s 758 mmHg 63%
    09:00 +23°C° 0 mm 1 m/s 758 mmHg 58%
    10:00 +25°C° 0 mm 2 m/s 758 mmHg 52%
    11:00 +26°C° 0 mm 2 m/s 758 mmHg 47%
    12:00 +28°C° 0 mm 2 m/s 758 mmHg 41%
    13:00 +28°C° 0 mm 2 m/s 758 mmHg 41%
    14:00 +28°C° 0 mm 2 m/s 758 mmHg 41%
    15:00 +29°C° 0 mm 2 m/s 757 mmHg 40%
    16:00 +28°C° 0 mm 3 m/s 757 mmHg 43%
    17:00 +27°C° 0 mm 3 m/s 757 mmHg 46%
    18:00 +26°C° 0 mm 4 m/s 757 mmHg 48%
    19:00 +25°C° 0 mm 4 m/s 758 mmHg 53%
    20:00 +22°C° 0 mm 3 m/s 758 mmHg 59%
    21:00 +21°C° 0 mm 3 m/s 759 mmHg 64%
    22:00 +21°C° 0 mm 3 m/s 759 mmHg 66%
    23:00 +20°C° 0 mm 3 m/s 759 mmHg 69%

    Mâine, 28 Februarie, Vineri

    Timp Temperatura Precipitaţii Vânt Presiune Umiditate
    00:00 +20°C° 0 mm 2 m/s 759 mmHg 71%
    01:00 +19°C° 0 mm 2 m/s 759 mmHg 73%
    02:00 +20°C° 0 mm 1 m/s 759 mmHg 74%
    03:00 +20°C° 0 mm 1 m/s 759 mmHg 76%
    04:00 +19°C° 0 mm 1 m/s 759 mmHg 76%
    05:00 +19°C° 0 mm 1 m/s 759 mmHg 76%
    06:00 +19°C° 0 mm 1 m/s 759 mmHg 77%
    07:00 +20°C° 0 mm 1 m/s 759 mmHg 69%
    08:00 +22°C° 0 mm 1 m/s 760 mmHg 62%
    09:00 +24°C° 0 mm 1 m/s 760 mmHg 55%
    10:00 +27°C° 0 mm 1 m/s 760 mmHg 48%
    11:00 +29°C° 0 mm 1 m/s 760 mmHg 41%
    12:00 +31°C° 0 mm 1 m/s 760 mmHg 34%
    13:00 +31°C° 0 mm 1 m/s 759 mmHg 33%
    14:00 +31°C° 0 mm 2 m/s 759 mmHg 32%
    15:00 +31°C° 0 mm 3 m/s 759 mmHg 31%
    16:00 +30°C° 0 mm 3 m/s 759 mmHg 35%
    17:00 +29°C° 0 mm 4 m/s 759 mmHg 39%
    18:00 +28°C° 0 mm 4 m/s 758 mmHg 43%
    19:00 +26°C° 0 mm 4 m/s 759 mmHg 48%
    20:00 +25°C° 0 mm 4 m/s 760 mmHg 54%
    21:00 +22°C° 0 mm 4 m/s 760 mmHg 60%
    22:00 +22°C° 0 mm 3 m/s 760 mmHg 64%
    23:00 +21°C° 0 mm 3 m/s 760 mmHg 68%

    Poimâine, 29 Februarie, Sâmbătă

    Timp Temperatura Precipitaţii Vânt Presiune Umiditate
    00:00 +21°C° 0 mm 3 m/s 760 mmHg 72%
    01:00 +20°C° 0 mm 2 m/s 760 mmHg 74%
    02:00 +21°C° 0 mm 1 m/s 760 mmHg 75%
    03:00 +20°C° 0 mm 1 m/s 760 mmHg 77%
    04:00 +20°C° 0 mm 1 m/s 760 mmHg 77%
    05:00 +19°C° 0 mm 1 m/s 760 mmHg 77%
    06:00 +19°C° 0 mm 1 m/s 760 mmHg 77%
    07:00 +21°C° 0 mm 1 m/s 761 mmHg 71%
    08:00 +23°C° 0 mm 1 m/s 761 mmHg 64%
    09:00 +25°C° 0 mm 1 m/s 761 mmHg 57%
    10:00 +27°C° 0 mm 1 m/s 761 mmHg 50%
    11:00 +29°C° 0 mm 1 m/s 761 mmHg 43%
    12:00 +31°C° 0 mm 1 m/s 761 mmHg 35%
    13:00 +31°C° 0 mm 2 m/s 761 mmHg 35%
    14:00 +31°C° 0 mm 3 m/s 760 mmHg 34%
    15:00 +32°C° 0 mm 4 m/s 760 mmHg 33%
    16:00 +30°C° 0 mm 4 m/s 760 mmHg 39%
    17:00 +29°C° 0 mm 4 m/s 760 mmHg 46%
    18:00 +28°C° 0 mm 4 m/s 760 mmHg 52%
    19:00 +27°C° 0 mm 4 m/s 761 mmHg 58%
    20:00 +25°C° 0 mm 4 m/s 761 mmHg 65%
    21:00 +24°C° 0 mm 3 m/s 762 mmHg 72%
    22:00 +22°C° 0 mm 3 m/s 762 mmHg 74%
    23:00 +22°C° 0 mm 3 m/s 762 mmHg 76%

    1 Martie, Duminică

    Timp Temperatura Precipitaţii Vânt Presiune Umiditate
    00:00 +23°C° 0 mm 2 m/s 762 mmHg 79%
    01:00 +21°C° 0 mm 2 m/s 762 mmHg 80%
    02:00 +21°C° 0 mm 2 m/s 762 mmHg 81%
    03:00 +21°C° 0 mm 2 m/s 762 mmHg 82%
    04:00 +20°C° 0 mm 2 m/s 762 mmHg 82%
    05:00 +21°C° 0 mm 1 m/s 762 mmHg 83%
    06:00 +21°C° 0 mm 1 m/s 762 mmHg 84%
    07:00 +21°C° 0 mm 2 m/s 763 mmHg 78%
    08:00 +24°C° 0 mm 2 m/s 763 mmHg 72%
    09:00 +25°C° 0 mm 2 m/s 763 mmHg 66%
    10:00 +27°C° 0.1 mm 3 m/s 763 mmHg 62%
    11:00 +28°C° 0.1 mm 3 m/s 763 mmHg 58%
    12:00 +29°C° 0.1 mm 4 m/s 763 mmHg 54%
    13:00 +29°C° 0.1 mm 5 m/s 763 mmHg 54%
    14:00 +29°C° 0.1 mm 5 m/s 763 mmHg 54%
    15:00 +29°C° 0.1 mm 6 m/s 762 mmHg 55%
    16:00 +28°C° 0 mm 6 m/s 762 mmHg 58%
    17:00 +27°C° 0 mm 6 m/s 762 mmHg 62%
    18:00 +26°C° 0 mm 6 m/s 762 mmHg 65%
    19:00 +25°C° 0 mm 5 m/s 762 mmHg 68%
    20:00 +23°C° 0 mm 5 m/s 763 mmHg 71%
    21:00 +22°C° 0 mm 5 m/s 763 mmHg 74%
    22:00 +21°C° 0 mm 5 m/s 763 mmHg 75%
    23:00 +21°C° 0 mm 5 m/s 763 mmHg 75%

    2 Martie, Luni

    Timp Temperatura Precipitaţii Vânt Presiune Umiditate
    00:00 +21°C° 0 mm 4 m/s 763 mmHg 75%
    01:00 +21°C° 0 mm 4 m/s 763 mmHg 76%
    02:00 +20°C° 0 mm 4 m/s 762 mmHg 77%
    03:00 +20°C° 0 mm 4 m/s 762 mmHg 77%
    04:00 +20°C° 0 mm 3 m/s 762 mmHg 78%
    05:00 +20°C° 0 mm 3 m/s 762 mmHg 80%
    06:00 +19°C° 0 mm 3 m/s 762 mmHg 81%
    07:00 +21°C° 0 mm 3 m/s 762 mmHg 74%
    08:00 +22°C° 0 mm 3 m/s 763 mmHg 68%
    09:00 +25°C° 0 mm 3 m/s 763 mmHg 61%
    10:00 +26°C° 0 mm 3 m/s 763 mmHg 55%
    11:00 +28°C° 0 mm 3 m/s 762 mmHg 48%
    12:00 +30°C° 0 mm 3 m/s 762 mmHg 42%
    13:00 +30°C° 0 mm 4 m/s 761 mmHg 42%
    14:00 +30°C° 0 mm 4 m/s 761 mmHg 42%
    15:00 +32°C° 0 mm 5 m/s 760 mmHg 42%
    16:00 +29°C° 0 mm 5 m/s 760 mmHg 47%
    17:00 +28°C° 0 mm 5 m/s 760 mmHg 51%
    18:00 +27°C° 0 mm 5 m/s 760 mmHg 56%
    19:00 +26°C° 0 mm 5 m/s 760 mmHg 61%
    20:00 +25°C° 0 mm 5 m/s 760 mmHg 66%
    21:00 +22°C° 0 mm 5 m/s 761 mmHg 71%
    22:00 +22°C° 0 mm 5 m/s 761 mmHg 72%
    23:00 +22°C° 0 mm 4 m/s 761 mmHg 73%

    3 Martie, Marţi

    Timp Temperatura Precipitaţii Vânt Presiune Umiditate
    00:00 +21°C° 0 mm 4 m/s 760 mmHg 74%
    01:00 +21°C° 0 mm 3 m/s 760 mmHg 76%
    02:00 +20°C° 0 mm 3 m/s 760 mmHg 77%
    03:00 +20°C° 0 mm 2 m/s 759 mmHg 79%
    04:00 +19°C° 0 mm 2 m/s 759 mmHg 80%
    05:00 +20°C° 0 mm 1 m/s 759 mmHg 81%
    06:00 +20°C° 0 mm 1 m/s 759 mmHg 82%
    07:00 +21°C° 0 mm 1 m/s 759 mmHg 74%
    08:00 +23°C° 0 mm 1 m/s 760 mmHg 65%
    09:00 +25°C° 0 mm 1 m/s 760 mmHg 57%
    10:00 +27°C° 0 mm 1 m/s 759 mmHg 50%
    11:00 +29°C° 0 mm 1 m/s 759 mmHg 43%
    12:00 +31°C° 0 mm 1 m/s 759 mmHg 37%
    13:00 +31°C° 0 mm 2 m/s 758 mmHg 36%
    14:00 +32°C° 0 mm 2 m/s 758 mmHg 36%
    15:00 +33°C° 0 mm 3 m/s 757 mmHg 36%
    16:00 +32°C° 0 mm 4 m/s 757 mmHg 42%
    17:00 +29°C° 0 mm 4 m/s 757 mmHg 49%
    18:00 +28°C° 0 mm 5 m/s 757 mmHg 55%
    19:00 +27°C° 0 mm 5 m/s 757 mmHg 62%
    20:00 +25°C° 0 mm 4 m/s 757 mmHg 68%
    21:00 +23°C° 0 mm 4 m/s 758 mmHg 74%
    22:00 +24°C° 0 mm 3 m/s 757 mmHg 76%
    23:00 +22°C° 0 mm 3 m/s 757 mmHg 79%
    Arată mai mult